Location: Gleizolles
(44.4833°N, 6.7667°E)
Time: 15:05:11
(UTC+00:00)

deb Explorer IX - Pass Details

Date: 01 July 2024
Orbit: 510 x 878 km, 38.7° (Epoch: 21 July)

Event Time Altitude Azimuth Distance (km) Brightness Sun altitude
Rises 04:24:07 0° 231° (SW) 2,602 ? 4.0°
Reaches altitude 10° 04:26:36 10° 217° (SW) 1,717 ? 4.4°
Maximum altitude 04:29:46 24° 162° (SSE) 1,095 ? 4.9°
Drops below altitude 10° 04:33:02 10° 107° (ESE) 1,773 ? 5.4°
Sets 04:35:38 0° 94° (E) 2,708 ? 5.8°
